Location: Deurze
(52.9838°N, 6.6090°E)
Time: 18:47:44
(UTC+00:00)

Cosmos 1066 Rocket - Pass Details

Date: 11 March 2026
Orbit: 797 x 893 km, 81.2° (Epoch: 20 April)

Event Time Altitude Azimuth Distance (km) Brightness Sun altitude
Rises 18:40:20 0° 348° (NNW) 3,408 7.7 -11.3°
Reaches altitude 10° 18:42:49 10° 352° (N) 2,454 6.9 -11.7°
Maximum altitude 18:48:18 60° 72° (ENE) 936 4.2 -12.5°
Drops below altitude 10° 18:53:37 10° 153° (SSE) 2,384 6.2 -13.3°
Enters shadow 18:55:25 - 156° (SSE) 3,069 6.8 -13.5°
